Regional Weather Roundup
Issued by NWS

Home | Current Version | Previous Version | Text Only | Print | Product List | Glossary On
Versions: 1 2 3 4 5 6 7 8 9 10 11 12 13 14 15 16 17 18 19 20 21 22 23 24 25 26 27 28 29 30 31 32 33 34 35 36 37 38 39 40 41 42 43 44 45 46 47 48 49 50
000
ASUS43 KDTX 031201
RWRMI
MICHIGAN HOURLY REGIONAL WEATHER ROUNDUP
NATIONAL WEATHER SERVICE DETROIT/PONTIAC MI
700 AM EST SAT DEC 03 2016

NOTE: "FAIR" INDICATES FEW OR NO CLOUDS BELOW 12,000 FEET WITH NO
SIGNIFICANT WEATHER AND/OR OBSTRUCTION TO VISIBILITY.

MIZ047>049-052>055-059>063-066>070-074>076-081>083-031300-
SOUTHEAST LOWER MICHIGAN

CITY           SKY/WX    TMP DP  RH WIND       PRES   REMARKS
ADRIAN         CLOUDY    35  30  82 W9        30.30R WCI  28
6HR MIN TEMP:  34; 6HR MAX TEMP:  35;

ALMA           CLOUDY    35  31  84 W6        30.27R WCI  30
ANN ARBOR      CLOUDY    31  29  92 SW3       30.29R
BAD AXE        CLOUDY    37  33  87 W7        30.23R WCI  31
CARO           CLOUDY    34  31  90 W6        30.24S WCI  29
DETROIT CITY   CLOUDY    34  29  82 W8        30.28R WCI  27
6HR MIN TEMP:  34; 6HR MAX TEMP:  35;

DETROIT        CLOUDY    35  29  78 W8        30.30R WCI  29
6HR MIN TEMP:  32; 6HR MAX TEMP:  35;

FLINT          CLOUDY    34  30  85 W7        30.27R WCI  28
6HR MIN TEMP:  30; 6HR MAX TEMP:  34;

GROSSE ILE     CLOUDY    35  29  79 W7        30.29R WCI  29
6HR MIN TEMP:  33; 6HR MAX TEMP:  36;

HILLSDALE      CLOUDY    32  30  93 CALM      30.28R
HOWELL         CLOUDY    34  30  85 SW5       30.27R WCI  30
6HR MIN TEMP:  32; 6HR MAX TEMP:  34;


CITY           SKY/WX    TMP DP  RH WIND       PRES   REMARKS
JACKSON        CLOUDY    34  29  82 W8        30.29R WCI  27
6HR MIN TEMP:  34; 6HR MAX TEMP:  35;

LAMBERTVILLE   CLOUDY    37  31  79 W5        30.31R WCI  33
6HR MIN TEMP:  37; 6HR MAX TEMP:  37;

LANSING        CLOUDY    35  28  75 W6        30.29R WCI  30
6HR MIN TEMP:  35; 6HR MAX TEMP:  35;

LAPEER         NOT AVBL
MASON          CLOUDY    34  30  85 CALM      30.28R
MONROE         CLOUDY    36  32  87 W5        30.30R WCI  32
MT. CLEMENS    CLOUDY    36  30  78 W8        30.25R WCI  30
6HR MIN TEMP:  36; 6HR MAX TEMP:  37;

PONTIAC        CLOUDY    32  28  85 W5        30.25R WCI  27
6HR MIN TEMP:  31; 6HR MAX TEMP:  34;

PORT HOPE        N/A     40  33  76 W10       30.20R WCI  33
6HR MIN TEMP:  40; 6HR MAX TEMP:  41;

PORT HURON     CLOUDY    36  32  87 W7        30.25R WCI  30
TRI CITIES     CLOUDY    34  32  92 W7        30.26S WCI  28
6HR MIN TEMP:  31; 6HR MAX TEMP:  34;

MIDLAND        CLOUDY    34  31  88 W3        30.25S
6HR MIN TEMP:  29; 6HR MAX TEMP:  34;

TROY           MOCLDY    35  29  78 W5        30.29R WCI  31
SAGINAW HB     CLOUDY    34  30  86 SW5       30.25S WCI  30
$$
MIZ043>046-050>051-056>058-064>065-071>073-077>080-031300-
SOUTHWEST LOWER MICHIGAN

CITY           SKY/WX    TMP DP  RH WIND       PRES   REMARKS
BATTLE CREEK   CLOUDY    35  29  78 W6        30.30R WCI  30
6HR MIN TEMP:  34; 6HR MAX TEMP:  35;

BENTON HARBOR  CLOUDY    37  26  64 SW6       30.32R WCI  32
6HR MIN TEMP:  36; 6HR MAX TEMP:  38;

BIG RAPIDS     CLOUDY    35  31  86 W7        30.25S WCI  29
6HR MIN TEMP:  35; 6HR MAX TEMP:  36;

COLDWATER      CLOUDY    35  30  83 W3        30.29S
6HR MIN TEMP:  34; 6HR MAX TEMP:  36;

FREMONT        CLOUDY    33  29  85 SW5       30.29R WCI  29
HOLLAND        CLOUDY    37  29  72 W7        30.30R WCI  32
6HR MIN TEMP:  37; 6HR MAX TEMP:  37;

GRAND RAPIDS   CLOUDY    35  28  75 W7        30.30R WCI  29
6HR MIN TEMP:  34; 6HR MAX TEMP:  36; 6HR PCP: TRACE;

IONIA          CLOUDY    34  29  82 W8        30.28R WCI  28
6HR MIN TEMP:  34; 6HR MAX TEMP:  35;

KALAMAZOO      CLOUDY    36  28  73 W6        30.30R WCI  31
6HR MIN TEMP:  35; 6HR MAX TEMP:  36;

LUDINGTON      LGT RAIN  37  32  83 W5        30.27R WCI  33
6HR MIN TEMP:  37; 6HR MAX TEMP:  37;

MARSHALL       CLOUDY    35  31  87 W6        30.29R WCI  30
6HR MIN TEMP:  34; 6HR MAX TEMP:  35;

MOUNT PLEASANT CLOUDY    35  31  86 W7        30.25S WCI  29
6HR MIN TEMP:  32; 6HR MAX TEMP:  35;

MUSKEGON       CLOUDY    37  28  70 W6        30.31R WCI  32
6HR MIN TEMP:  36; 6HR MAX TEMP:  37;

SOUTH HAVEN    CLOUDY    38  29  69 NW6       30.31S WCI  34
$$
MIZ016>042-031300-
NORTHERN LOWER MICHIGAN

CITY           SKY/WX    TMP DP  RH WIND       PRES   REMARKS
ALPENA         CLOUDY    36  32  85 W6        30.21R WCI  31
6HR MIN TEMP:  36; 6HR MAX TEMP:  37;

BEAVER ISLAND  CLOUDY    36  32  84 NW5       30.23S WCI  32
6HR MIN TEMP:  36; 6HR MAX TEMP:  37;

BELLAIRE       CLOUDY    36  35  97 CALM      30.24R
6HR MIN TEMP:  36; 6HR MAX TEMP:  37;

CADILLAC       LGT SNOW  33  32  96 W6        30.22R WCI  27
CHARLEVOIX     CLOUDY    38  32  78 NW9       30.25R WCI  32
6HR MIN TEMP:  38; 6HR MAX TEMP:  39;

FRANKFORT      CLOUDY    36  36  97 CALM      30.24S
GAYLORD        LGT SNOW  34  31  88 VRB3      30.19S FOG
6HR MIN TEMP:  34; 6HR MAX TEMP:  35; 6HR PCP: TRACE;

GRAYLING       CLOUDY    34  33  97 SW3       30.22R
6HR MIN TEMP:  34; 6HR MAX TEMP:  36;

HARBOR SPRINGS CLOUDY    36  32  85 CALM      30.21S
HOUGHTON LAKE  CLOUDY    35  33  92 W8        30.22R WCI  29
6HR MIN TEMP:  35; 6HR MAX TEMP:  36; 6HR PCP: TRACE;

MANISTEE       LGT RAIN  37  34  89 W7        30.25  WCI  32
OSCODA         CLOUDY    37  33  84 W5        30.22R WCI  34
6HR MIN TEMP:  33; 6HR MAX TEMP:  39;

PELLSTON       LGT RAIN  35  32  88 CALM      30.22S
6HR MIN TEMP:  35; 6HR MAX TEMP:  37; 6HR PCP: TRACE;

ROGERS CITY    CLOUDY    37  32  83 W3        30.21R
TRAVERSE CITY  CLOUDY    37  34  89 CALM      30.23R
6HR MIN TEMP:  37; 6HR MAX TEMP:  38;

$$
MIZ007>008-015-031300-
EASTERN UPPER MICHIGAN

CITY           SKY/WX    TMP DP  RH WIND       PRES   REMARKS
KINROSS        CLOUDY    32  31  96 W6        30.19  WCI  26
6HR MIN TEMP:  32; 6HR MAX TEMP:  33; 6HR PCP: TRACE;

MACKINAC ISLAN CLOUDY    34  32  92 N9        30.20S WCI  27
6HR MIN TEMP:  34; 6HR MAX TEMP:  35;

NEWBERRY       CLOUDY    32  32  99 W6        30.20S WCI  27
6HR MIN TEMP:  32; 6HR MAX TEMP:  33;

S. S. MARIE    LGT SNOW  33  31  92 W3        30.19R FOG
6HR MIN TEMP:  32; 6HR MAX TEMP:  35; 6HR PCP:  0.01;

MUNISING         N/A     33  33 100 CALM      30.22F
6HR MIN TEMP:  33; 6HR MAX TEMP:  38; 6HR PCP:  0.09;

$$
MIZ004>006-011>014-085-031300-
CENTRAL UPPER MICHIGAN

CITY           SKY/WX    TMP DP  RH WIND       PRES   REMARKS
MANISTIQUE     CLOUDY    34  32  93 NW5       30.23S WCI  30
6HR MIN TEMP:  33; 6HR MAX TEMP:  34;

ESCANABA       CLOUDY    33  29  85 W7        30.25  WCI  27
6HR MIN TEMP:  33; 6HR MAX TEMP:  34;

MENOMINEE      CLOUDY    33  28  81 W3        30.28
6HR MIN TEMP:  33; 6HR MAX TEMP:  35;

SAWYER-GWINN   CLOUDY    30  28  93 CALM      30.21S
$$
MIZ001>003-009>011-084-031300-
WESTERN UPPER MICHIGAN

CITY           SKY/WX    TMP DP  RH WIND       PRES   REMARKS
IRON MOUNTAIN  CLOUDY    32  26  78 W3        30.23R
6HR MIN TEMP:  31; 6HR MAX TEMP:  32; 6HR PCP: TRACE;

HOUGHTON       CLOUDY    31  28  89 W3        30.21S
6HR MIN TEMP:  30; 6HR MAX TEMP:  32; 6HR PCP: TRACE;

COPPER HARBOR    N/A     35  28  75 NE9       30.23S WCI  28
6HR MIN TEMP:  35; 6HR MAX TEMP:  35;

IRONWOOD       CLOUDY    28  26  92 SW5       30.24S WCI  23
                                      6HR PCP: TRACE;

$$

ABBREVIATIONS USED IN REMARKS
   TC - TEMPERATURE IN CELSIUS
  WCI - WIND CHILL INDEX
   HX - HEAT INDEX
  VSB - VISIBILITY




USA.gov is the U.S. government's official web portal to all federal, state and local government web resources and services.